QPF
0.00 0.01 0.00 0.00 0.01 0.01 0.01 0.02 0.00 0.01 0.02 0.02 0.00 0.00 0.00 0.00 0.00 0.00 0.00 0.00 0.00 0.00 0.00 0.00 0.00 0.00 0.00 0.00 0.00 0.00 0.00 0.00 0.00 0.00 0.00 0.00 0.00 0.00 0.00 0.00 0.00 0.00 0.00 0.00 0.00
0.00 0.00 0.00 0.00 0.00 0.01 0.02 0.01 0.00 0.01 0.00 0.00 0.01 0.00 0.00 0.00 0.00 0.00 0.00 0.00 0.00 0.00 0.00 0.00 0.00 0.00 0.00 0.00 0.00 0.00 0.00 0.00 0.00 0.00 0.00 0.00 0.00 0.00 0.00 0.00 0.00 0.00 0.00 0.00 0.00
0.00 0.00 0.00 0.00 0.00 0.00 0.00 0.00 0.00 0.00 0.00 0.00 0.00 0.00 0.00 0.00 0.00 0.00 0.00 0.00 0.00 0.00 0.00 0.00 0.00 0.00 0.00 0.00 0.00 0.00 0.00 0.00 0.00 0.00 0.00 0.00 0.00 0.00 0.00 0.00 0.00 0.00 0.00 0.00 0.00
0.00 0.00 0.00 0.00 0.00 0.00 0.00 0.00 0.00 0.00 0.00 0.00 0.00 0.00 0.00 0.00 0.00 0.00 0.00 0.00 0.00 0.00 0.00 0.00 0.00 0.00 0.00 0.00 0.00 0.00 0.00 0.00 0.00 0.00 0.00 0.00 0.00 0.00 0.00 0.00 0.00 0.00 0.00 0.00 0.00
0.00 0.00 0.00 0.00 0.00 0.00 0.00 0.00 0.00 0.00 0.00 0.00 0.00 0.00 0.00 0.00 0.00 0.00 0.00 0.00 0.00 0.00 0.00 0.00 0.00 0.00 0.00 0.00 0.00 0.00 0.00 0.00 0.00 0.00 0.00 0.00 0.00 0.00 0.00 0.00 0.00 0.00 0.00 0.00 0.00
0.00 0.00 0.00 0.00 0.00 0.00 0.00 0.00 0.00 0.00 0.00 0.00 0.00 0.00 0.00 0.00 0.00 0.00 0.00 0.00 0.00 0.00 0.00 0.00 0.00 0.00 0.00 0.00 0.00 0.00 0.00 0.00 0.00 0.00 0.00 0.00 0.00 0.00 0.00 0.00 0.00 0.00 0.00 0.00 0.00
0.00 0.00 0.00 0.00 0.00 0.00 0.00 0.00 0.00 0.00 0.00 0.00 0.00 0.00 0.00 0.00 0.00 0.00 0.00 0.00 0.00 0.00 0.00 0.00 0.00 0.00 0.00 0.00 0.00 0.00 0.00 0.00 0.00 0.00 0.00 0.00 0.00 0.00 0.00 0.00 0.00 0.00 0.00 0.00 0.00
0.00 0.00 0.00 0.00 0.00 0.00 0.00 0.00 0.00 0.00 0.00 0.00 0.00 0.00 0.00 0.00 0.00 0.00 0.00 0.00 0.00 0.00 0.00 0.00 0.00 0.00 0.00 0.00 0.00 0.00 0.00 0.00 0.00 0.00 0.00 0.00 0.00 0.00 0.00 0.00 0.00 0.00 0.00 0.00 0.00
0.00 0.00 0.00 0.00 0.00 0.00 0.00 0.00 0.00 0.00 0.00 0.00 0.00 0.00 0.00 0.00 0.00 0.00 0.00 0.00 0.00 0.00 0.00 0.00 0.00 0.00 0.00 0.00 0.00 0.00 0.00 0.00 0.00 0.00 0.00 0.00 0.00 0.00 0.00 0.00 0.00 0.00 0.00 0.00 0.00
0.00 0.00 0.00 0.00 0.00 0.00 0.00 0.00 0.00 0.00 0.00 0.00 0.00 0.00 0.00 0.00 0.00 0.00 0.00 0.00 0.00 0.00 0.00 0.00 0.00 0.00 0.00 0.00 0.00 0.00 0.00 0.00 0.00 0.00 0.00 0.00 0.00 0.00 0.00 0.00 0.00 0.00 0.00 0.00 0.00
0.00 0.00 0.00 0.00 0.00 0.00 0.00 0.00 0.00 0.00 0.00 0.00 0.00 0.00 0.00 0.00 0.00 0.00 0.00 0.00 0.00 0.00 0.00 0.00 0.00 0.00 0.00 0.00 0.00 0.00 0.00 0.00 0.00 0.00 0.00 0.00 0.00 0.00 0.00 0.00 0.00 0.00 0.00 0.00 0.00
0.00 0.00 0.00 0.00 0.00 0.00 0.00 0.00 0.00 0.00 0.00 0.00 0.00 0.00 0.00 0.00 0.00 0.00 0.00 0.00 0.00 0.00 0.00 0.00 0.00 0.00 0.00 0.00 0.00 0.00 0.00 0.00 0.00 0.00 0.00 0.00 0.00 0.00 0.00 0.00 0.00 0.00 0.00 0.00 0.00
0.00 0.00 0.00 0.00 0.00 0.00 0.00 0.00 0.00 0.00 0.00 0.00 0.00 0.00 0.00 0.00 0.00 0.00 0.00 0.00 0.00 0.00 0.00 0.00 0.00 0.00 0.00 0.00 0.00 0.00 0.00 0.00 0.00 0.00 0.00 0.00 0.00 0.00 0.00 0.00 0.00 0.00 0.00 0.00 0.00
0.00 0.00 0.00 0.00 0.00 0.00 0.00 0.00 0.00 0.00 0.00 0.00 0.00 0.00 0.00 0.00 0.00 0.00 0.00 0.00 0.00 0.00 0.00 0.00 0.00 0.00 0.00 0.00 0.00 0.00 0.00 0.00 0.00 0.00 0.00 0.00 0.00 0.00 0.00 0.00 0.00 0.00 0.00 0.00 0.00
0.00 0.00 0.00 0.00 0.00 0.00 0.00 0.00 0.00 0.00 0.00 0.00 0.00 0.00 0.00 0.00 0.00 0.00 0.00 0.00 0.00 0.00 0.00 0.00 0.00 0.00 0.00 0.00 0.00 0.00 0.00 0.00 0.00 0.00 0.00 0.00 0.00 0.00 0.00 0.00 0.00 0.00 0.00 0.00 0.00
0.00 0.00 0.00 0.00 0.00 0.00 0.00 0.00 0.00 0.00 0.00 0.00 0.00 0.00 0.00 0.00 0.00 0.00 0.00 0.00 0.00 0.00 0.00 0.00 0.00 0.00 0.00 0.00 0.00 0.00 0.00 0.00 0.00 0.00 0.00 0.00 0.00 0.00 0.00 0.00 0.00 0.00 0.00 0.00 0.00
0.00 0.00 0.00 0.00 0.00 0.00 0.00 0.00 0.00 0.00 0.00 0.00 0.00 0.00 0.00 0.00 0.00 0.00 0.00 0.00 0.00 0.00 0.00 0.00 0.00 0.00 0.00 0.00 0.00 0.00 0.00 0.00 0.00 0.00 0.00 0.00 0.00 0.00 0.00 0.00 0.00 0.00 0.00 0.00 0.00
0.00 0.00 0.00 0.00 0.00 0.00 0.00 0.00 0.00 0.00 0.00 0.00 0.00 0.00 0.00 0.00 0.00 0.00 0.00 0.00 0.00 0.00 0.00 0.00 0.00 0.00 0.00 0.00 0.00 0.00 0.00 0.00 0.00 0.00 0.00 0.00 0.00 0.00 0.00 0.00 0.00 0.00 0.00 0.00 0.00
0.00 0.00 0.00 0.00 0.00 0.00 0.00 0.00 0.00 0.00 0.00 0.00 0.00 0.00 0.00 0.00 0.00 0.00 0.00 0.00 0.00 0.00 0.00 0.00 0.00 0.00 0.00 0.00 0.00 0.00 0.00 0.00 0.00 0.00 0.00 0.00 0.00 0.00 0.00 0.00 0.00 0.00 0.00 0.00 0.00
0.00 0.00 0.00 0.00 0.00 0.00 0.00 0.00 0.00 0.00 0.00 0.00 0.00 0.00 0.00 0.00 0.00 0.00 0.00 0.00 0.00 0.00 0.00 0.00 0.00 0.00 0.00 0.00 0.00 0.00 0.00 0.00 0.00 0.00 0.00 0.00 0.00 0.00 0.00 0.00 0.00 0.00 0.00 0.00 0.00
0.00 0.00 0.00 0.00 0.00 0.00 0.00 0.00 0.00 0.00 0.00 0.00 0.00 0.00 0.00 0.00 0.00 0.00 0.00 0.00 0.00 0.00 0.00 0.00 0.00 0.00 0.00 0.00 0.00 0.00 0.00 0.00 0.00 0.00 0.00 0.00 0.00 0.00 0.00 0.00 0.00 0.00 0.00 0.00 0.00
0.00 0.00 0.00 0.00 0.00 0.00 0.00 0.00 0.00 0.00 0.00 0.00 0.00 0.00 0.00 0.00 0.00 0.00 0.00 0.00 0.00 0.00 0.00 0.00 0.00 0.00 0.00 0.00 0.00 0.00 0.00 0.00 0.00 0.00 0.00 0.00 0.00 0.00 0.00 0.00 0.00 0.00 0.00 0.00 0.00
0.00 0.00 0.00 0.00 0.00 0.00 0.00 0.00 0.00 0.00 0.00 0.00 0.00 0.00 0.00 0.00 0.00 0.00 0.00 0.00 0.00 0.00 0.00 0.00 0.00 0.00 0.00 0.00 0.00 0.00 0.00 0.00 0.00 0.00 0.00 0.00 0.00 0.00 0.00 0.00 0.00 0.00 0.00 0.00 0.00
0.00 0.00 0.00 0.00 0.00 0.00 0.00 0.00 0.00 0.00 0.00 0.00 0.00 0.00 0.00 0.00 0.00 0.00 0.00 0.00 0.00 0.00 0.00 0.00 0.00 0.00 0.00 0.00 0.00 0.00 0.00 0.00 0.00 0.00 0.00 0.00 0.00 0.00 0.00 0.00 0.00 0.00 0.00 0.00 0.00
0.00 0.00 0.00 0.00 0.00 0.00 0.00 0.00 0.00 0.00 0.00 0.00 0.00 0.00 0.00 0.00 0.00 0.00 0.00 0.00 0.00 0.00 0.00 0.00 0.00 0.00 0.00 0.00 0.00 0.00 0.00 0.00 0.00 0.00 0.00 0.00 0.00 0.00 0.00 0.00 0.00 0.00 0.00 0.00 0.00
0.00 0.00 0.00 0.00 0.00 0.00 0.00 0.00 0.00 0.00 0.00 0.00 0.00 0.00 0.00 0.00 0.00 0.00 0.00 0.00 0.00 0.00 0.00 0.00 0.00 0.00 0.00 0.00 0.00 0.00 0.00 0.00 0.00 0.00 0.00 0.00 0.00 0.00 0.00 0.00 0.00 0.00 0.00 0.00 0.00
0.00 0.00 0.00 0.00 0.00 0.00 0.00 0.00 0.00 0.00 0.00 0.00 0.00 0.00 0.00 0.00 0.00 0.00 0.00 0.00 0.00 0.00 0.00 0.00 0.00 0.00 0.00 0.00 0.00 0.00 0.00 0.00 0.00 0.00 0.00 0.00 0.00 0.00 0.00 0.00 0.00 0.00 0.00 0.00 0.00
MSLP
1016.69 1016.56 1016.37 1016.22 1016.10 1015.91 1015.81 1015.25 1015.22 1015.25 1014.94 1014.85 1014.92 1015.02 1015.31 1015.36 1015.57 1015.73 1015.46 1014.68 1014.61 1014.50 1014.52 1014.70 1014.58 1014.68 1014.64 1014.98 1015.15 1015.65 1016.43 1016.81 1016.37 1016.22 1015.53 1015.53 1015.75 1016.06 1016.19 1016.73 1017.54 1018.09 1018.42 1018.72 1019.19
1016.88 1016.62 1016.54 1016.34 1016.16 1015.96 1015.75 1015.30 1015.27 1015.18 1014.92 1014.81 1014.95 1015.06 1015.27 1015.32 1015.53 1015.19 1014.38 1014.20 1014.27 1014.43 1014.58 1014.39 1014.60 1014.28 1014.86 1015.10 1015.43 1015.86 1016.52 1016.17 1015.95 1015.72 1015.74 1015.75 1015.96 1016.34 1016.69 1017.32 1018.31 1018.76 1018.95 1019.17 1019.46
1017.03 1016.63 1016.50 1016.38 1016.11 1015.98 1015.69 1015.34 1015.40 1015.14 1014.94 1014.78 1014.86 1014.97 1015.18 1015.52 1015.36 1014.07 1013.74 1013.92 1013.99 1014.03 1014.21 1013.66 1014.22 1013.85 1014.82 1015.11 1015.51 1015.92 1016.19 1016.06 1016.12 1015.96 1015.97 1016.07 1016.42 1016.64 1016.97 1017.79 1018.06 1018.70 1019.24 1019.53 1019.93
1016.96 1016.69 1016.34 1016.33 1016.08 1015.99 1015.67 1015.12 1014.97 1014.98 1014.91 1014.72 1014.78 1014.98 1015.25 1015.61 1014.89 1013.42 1013.43 1013.58 1013.76 1014.08 1014.30 1014.37 1013.79 1014.09 1015.00 1015.29 1015.40 1015.94 1016.17 1016.31 1016.43 1016.42 1016.28 1016.52 1016.76 1017.02 1017.32 1017.46 1017.55 1018.25 1019.01 1019.68 1020.26
1016.82 1016.64 1016.30 1016.17 1016.06 1015.86 1015.60 1015.31 1014.94 1014.83 1014.75 1014.61 1014.70 1014.93 1015.53 1015.44 1013.88 1013.19 1013.24 1013.27 1013.58 1014.15 1014.13 1013.82 1012.81 1014.37 1015.11 1015.41 1015.62 1015.92 1016.40 1016.63 1016.79 1016.79 1016.69 1016.88 1017.19 1017.39 1017.64 1017.84 1017.97 1018.57 1019.29 1019.98 1020.37
1016.82 1016.48 1016.22 1015.86 1015.91 1015.76 1015.52 1015.34 1014.82 1014.82 1014.67 1014.61 1014.69 1015.03 1015.51 1014.75 1013.27 1013.31 1013.28 1013.18 1013.44 1013.81 1013.62 1013.58 1013.26 1013.96 1015.10 1015.68 1015.88 1016.32 1016.66 1016.95 1017.06 1017.09 1016.97 1017.25 1017.55 1017.78 1017.88 1018.24 1018.70 1019.04 1019.64 1020.12 1020.35
1016.79 1016.45 1016.22 1015.88 1015.67 1015.58 1015.44 1015.18 1014.58 1014.70 1014.40 1014.52 1014.67 1015.21 1014.86 1013.87 1013.30 1013.28 1013.12 1013.20 1013.32 1013.49 1013.40 1013.38 1012.91 1014.35 1015.40 1016.00 1016.35 1016.72 1017.21 1017.29 1017.29 1017.22 1017.30 1017.45 1017.88 1017.87 1017.99 1018.57 1019.09 1019.55 1019.91 1020.14 1020.37
1016.48 1016.35 1016.03 1015.91 1015.52 1015.38 1015.23 1015.22 1014.94 1014.72 1014.74 1014.68 1014.86 1015.10 1014.31 1013.40 1013.32 1013.27 1013.21 1013.24 1013.25 1013.15 1013.44 1013.89 1013.88 1015.17 1015.60 1016.33 1016.82 1017.34 1017.72 1017.81 1017.36 1017.37 1017.57 1017.83 1017.63 1017.63 1018.16 1018.79 1019.54 1019.95 1020.23 1020.25 1020.38
1016.39 1016.10 1015.88 1015.60 1015.42 1015.06 1014.98 1014.75 1014.63 1014.50 1014.48 1014.50 1014.86 1014.78 1014.13 1013.40 1013.57 1013.46 1013.39 1013.52 1013.43 1013.58 1013.85 1013.64 1014.53 1015.80 1016.30 1017.14 1018.05 1018.24 1018.02 1017.91 1017.48 1017.38 1017.64 1018.06 1017.90 1018.01 1018.39 1019.03 1019.82 1020.19 1020.48 1020.53 1020.57
1016.47 1015.85 1015.63 1015.35 1015.15 1014.86 1014.56 1014.42 1014.22 1014.22 1014.37 1014.47 1014.51 1014.89 1014.12 1013.70 1013.73 1013.65 1013.65 1013.66 1013.93 1014.38 1014.56 1014.68 1015.42 1016.47 1017.16 1017.78 1018.01 1017.90 1017.91 1017.56 1017.42 1017.53 1017.73 1018.23 1018.04 1018.25 1018.68 1019.20 1019.79 1020.28 1020.67 1020.86 1020.83
1016.31 1015.96 1015.37 1015.18 1014.88 1014.67 1014.30 1014.30 1014.80 1014.78 1014.32 1014.11 1013.88 1013.77 1013.63 1013.75 1013.78 1013.92 1013.89 1013.90 1014.20 1014.83 1015.32 1015.81 1016.54 1016.59 1016.67 1017.34 1016.97 1016.96 1017.08 1017.30 1017.32 1017.31 1017.70 1018.11 1018.21 1018.19 1018.49 1019.19 1019.89 1020.49 1020.71 1020.88 1020.98
1016.14 1015.79 1015.41 1014.88 1014.70 1014.52 1014.55 1014.54 1014.51 1014.76 1014.41 1013.83 1013.67 1013.58 1013.50 1013.56 1013.82 1013.95 1013.94 1014.20 1014.84 1015.43 1015.61 1016.12 1016.36 1016.31 1016.71 1016.95 1016.69 1016.75 1017.21 1017.50 1017.56 1017.60 1018.00 1018.19 1018.06 1017.96 1018.20 1018.57 1018.96 1019.81 1020.50 1020.71 1021.08
1016.23 1015.54 1015.33 1014.81 1014.31 1014.44 1014.39 1014.28 1014.36 1014.45 1014.46 1013.90 1013.41 1013.28 1013.36 1013.61 1013.70 1013.83 1013.94 1014.29 1014.86 1015.50 1015.87 1016.24 1016.29 1016.37 1016.47 1016.69 1016.95 1017.31 1017.54 1017.77 1017.92 1018.16 1018.42 1018.60 1018.31 1017.80 1017.98 1018.33 1018.73 1019.53 1020.05 1020.64 1020.92
1015.99 1015.68 1015.07 1014.90 1014.53 1014.40 1014.26 1014.10 1014.18 1014.40 1014.77 1013.82 1013.37 1012.98 1013.21 1013.34 1013.73 1013.63 1013.77 1014.34 1014.67 1015.33 1016.11 1016.41 1016.37 1016.43 1016.49 1016.86 1017.04 1017.58 1017.65 1018.03 1018.65 1019.04 1019.45 1019.36 1019.11 1018.14 1018.10 1018.52 1019.15 1019.72 1020.11 1020.65 1021.09
1015.77 1015.66 1015.08 1014.77 1014.72 1014.36 1014.28 1014.00 1014.18 1014.53 1014.73 1013.69 1013.28 1012.94 1012.99 1013.51 1013.68 1013.69 1013.81 1014.19 1014.73 1015.38 1016.02 1016.45 1016.49 1016.51 1016.79 1016.76 1017.01 1017.84 1018.27 1018.97 1019.57 1020.13 1020.31 1020.29 1020.49 1018.27 1018.57 1018.89 1019.22 1019.79 1020.24 1020.70 1021.12
1015.59 1015.09 1015.43 1014.61 1014.79 1014.21 1013.88 1014.11 1014.36 1015.35 1014.54 1013.50 1013.16 1013.14 1013.39 1013.54 1013.90 1014.08 1014.15 1014.29 1014.73 1015.45 1016.11 1016.67 1016.59 1016.67 1016.82 1017.17 1017.48 1018.28 1019.11 1020.11 1020.92 1021.42 1021.63 1020.44 1020.48 1018.83 1018.67 1018.23 1018.88 1019.61 1020.24 1020.78 1021.41
1015.42 1014.89 1015.09 1014.91 1014.13 1014.16 1014.07 1014.55 1015.34 1015.05 1013.77 1013.49 1013.24 1013.31 1013.54 1013.86 1014.17 1014.21 1014.43 1014.71 1014.87 1015.89 1016.83 1017.25 1017.23 1017.07 1016.93 1017.73 1018.40 1018.90 1019.99 1021.45 1022.38 1022.52 1021.69 1020.87 1020.87 1018.24 1017.97 1018.26 1018.56 1019.29 1020.28 1021.00 1021.59
1014.97 1014.55 1013.77 1014.16 1014.05 1013.83 1014.72 1015.09 1015.32 1013.28 1013.17 1012.68 1012.91 1013.44 1013.75 1013.83 1014.11 1014.36 1014.67 1014.99 1014.92 1015.18 1016.86 1017.40 1017.92 1017.34 1017.26 1017.50 1017.93 1019.15 1019.72 1020.76 1021.79 1022.70 1021.80 1021.07 1020.10 1018.03 1018.44 1018.63 1018.87 1019.14 1020.15 1021.29 1022.04
1014.74 1014.23 1013.62 1013.49 1013.74 1014.11 1014.99 1015.16 1013.28 1012.39 1011.82 1012.34 1013.00 1013.54 1013.82 1013.78 1014.06 1014.50 1014.85 1014.76 1014.37 1014.66 1015.29 1016.61 1017.35 1017.55 1017.63 1017.73 1018.20 1019.31 1019.85 1020.16 1021.52 1022.74 1022.26 1020.63 1019.42 1018.52 1018.81 1019.08 1019.40 1019.93 1020.68 1021.58 1022.19
1015.21 1014.41 1013.29 1012.34 1013.74 1014.13 1014.73 1013.88 1012.48 1011.29 1011.22 1011.61 1012.02 1012.43 1013.30 1013.88 1014.35 1014.55 1014.64 1013.69 1013.88 1014.18 1014.30 1015.36 1017.15 1018.01 1018.18 1018.17 1018.59 1018.80 1019.47 1020.44 1021.36 1022.44 1022.49 1021.15 1020.38 1019.05 1019.41 1019.70 1020.11 1020.62 1021.14 1021.84 1022.33
1015.25 1014.36 1012.71 1012.37 1012.95 1014.50 1014.08 1012.93 1011.71 1010.71 1010.59 1010.87 1011.33 1012.27 1012.73 1013.26 1013.71 1014.12 1014.09 1013.49 1013.41 1014.10 1014.27 1015.14 1016.25 1018.79 1018.66 1018.59 1018.58 1019.37 1019.53 1020.33 1021.05 1021.71 1022.03 1022.05 1020.25 1019.11 1019.43 1019.81 1020.38 1021.11 1021.70 1022.16 1022.75
1014.97 1014.32 1012.66 1012.60 1013.33 1013.72 1013.08 1011.86 1010.61 1010.52 1010.39 1010.52 1010.82 1011.12 1011.97 1012.54 1013.07 1013.56 1013.26 1012.83 1012.63 1013.14 1014.39 1015.00 1016.68 1018.50 1018.52 1018.44 1018.50 1018.63 1018.94 1019.61 1020.93 1022.17 1022.50 1022.23 1020.24 1019.69 1019.87 1019.92 1020.75 1021.72 1022.25 1022.78 1023.17
1014.42 1013.60 1012.78 1012.80 1012.80 1012.77 1012.17 1011.06 1010.28 1010.34 1010.32 1010.39 1010.72 1010.68 1010.91 1011.73 1012.66 1012.76 1012.65 1012.66 1012.78 1013.11 1013.50 1014.51 1016.00 1017.87 1018.45 1018.75 1018.60 1018.70 1018.94 1019.54 1020.42 1021.21 1021.93 1022.10 1020.55 1020.25 1020.52 1020.94 1021.54 1022.19 1022.78 1023.17 1023.51
1014.05 1013.44 1013.22 1012.85 1011.98 1011.38 1011.37 1010.66 1010.11 1009.60 1009.74 1009.99 1010.23 1010.29 1010.83 1011.29 1011.57 1012.39 1012.85 1013.03 1013.11 1013.27 1013.50 1013.89 1015.39 1015.98 1016.65 1016.67 1017.11 1018.30 1018.46 1019.18 1019.84 1021.31 1020.89 1020.50 1020.24 1020.63 1021.10 1021.63 1022.20 1022.74 1023.03 1023.54 1023.92
1012.83 1012.10 1011.69 1012.14 1011.57 1010.87 1010.53 1009.84 1009.63 1009.59 1009.47 1009.67 1010.20 1010.24 1010.22 1011.14 1011.66 1012.15 1012.75 1013.44 1013.63 1013.72 1014.16 1014.62 1016.01 1016.79 1016.93 1016.90 1017.14 1017.43 1017.87 1018.61 1019.29 1018.93 1019.52 1019.13 1019.75 1019.92 1020.59 1021.76 1022.54 1023.04 1023.55 1023.90 1024.21
1011.77 1011.49 1011.20 1011.18 1010.54 1010.30 1010.09 1009.58 1009.28 1009.17 1009.16 1009.35 1009.67 1009.58 1010.32 1010.69 1010.45 1011.37 1012.28 1013.04 1013.27 1014.51 1014.94 1015.50 1016.84 1017.46 1018.16 1017.85 1017.93 1018.02 1018.07 1018.30 1018.50 1018.70 1018.87 1019.03 1019.54 1019.75 1020.70 1022.10 1023.01 1023.36 1023.60 1023.99 1024.27
1010.85 1010.66 1010.62 1010.53 1010.43 1010.12 1008.91 1008.38 1008.33 1008.76 1008.74 1008.52 1008.72 1009.70 1010.21 1010.11 1010.62 1011.01 1011.50 1012.10 1012.77 1013.88 1015.27 1016.22 1017.26 1018.30 1018.79 1018.53 1018.40 1018.40 1017.32 1017.16 1017.63 1017.81 1018.11 1018.97 1018.94 1020.01 1021.45 1022.16 1022.82 1023.37 1023.57 1023.99 1024.28
Thickness
5561 5553 5547 5540 5535 5529 5527 5528 5525 5522 5525 5533 5540 5549 5559 5573 5585 5598 5612 5634 5648 5661 5673 5678 5687 5688 5692 5696 5703 5699 5682 5682 5694 5691 5707 5709 5709 5713 5717 5711 5706 5703 5704 5705 5701
5560 5554 5546 5539 5534 5528 5525 5524 5523 5522 5526 5533 5539 5548 5556 5569 5582 5596 5618 5633 5645 5656 5667 5673 5676 5687 5681 5691 5693 5686 5676 5691 5700 5702 5698 5705 5708 5706 5707 5703 5695 5696 5698 5698 5697
5561 5557 5549 5540 5535 5529 5525 5523 5520 5521 5526 5532 5539 5547 5555 5565 5579 5601 5620 5632 5644 5655 5665 5678 5680 5687 5683 5689 5689 5687 5683 5695 5696 5698 5699 5700 5700 5705 5696 5696 5696 5693 5693 5693 5689
5566 5560 5554 5544 5538 5532 5528 5523 5525 5522 5527 5535 5541 5548 5555 5563 5574 5608 5622 5633 5642 5652 5660 5668 5678 5678 5674 5678 5689 5688 5689 5692 5691 5693 5697 5695 5698 5698 5699 5703 5706 5698 5693 5688 5683
5572 5565 5561 5553 5545 5539 5533 5528 5530 5531 5534 5541 5547 5551 5555 5565 5588 5611 5623 5633 5642 5649 5659 5669 5681 5673 5672 5677 5685 5684 5683 5683 5684 5686 5691 5694 5692 5694 5695 5696 5696 5693 5688 5682 5679
5578 5573 5568 5564 5555 5550 5545 5538 5541 5540 5544 5549 5553 5555 5559 5571 5603 5614 5624 5633 5642 5649 5661 5669 5676 5679 5671 5673 5678 5678 5677 5677 5681 5684 5688 5687 5687 5689 5693 5689 5688 5687 5681 5677 5676
5583 5580 5574 5571 5567 5560 5556 5550 5553 5549 5552 5556 5558 5560 5571 5585 5605 5616 5625 5633 5642 5651 5659 5669 5680 5673 5669 5667 5671 5668 5668 5672 5675 5680 5681 5684 5680 5681 5690 5683 5682 5680 5676 5674 5671
5592 5587 5585 5578 5577 5571 5566 5562 5558 5557 5558 5563 5564 5568 5578 5600 5609 5616 5624 5632 5643 5654 5659 5664 5669 5663 5666 5665 5660 5660 5656 5656 5673 5674 5676 5677 5673 5688 5679 5677 5673 5672 5670 5669 5668
5596 5594 5592 5589 5585 5583 5578 5575 5573 5571 5570 5573 5573 5578 5585 5604 5606 5616 5624 5628 5640 5649 5656 5664 5662 5654 5657 5646 5639 5641 5646 5652 5667 5669 5670 5670 5676 5681 5674 5671 5666 5664 5663 5662 5661
5599 5600 5598 5597 5595 5593 5591 5589 5588 5585 5583 5583 5585 5584 5594 5600 5608 5616 5625 5632 5635 5641 5648 5651 5647 5640 5637 5635 5622 5640 5646 5656 5663 5665 5666 5661 5661 5672 5669 5666 5662 5657 5655 5653 5652
5604 5602 5604 5602 5603 5601 5602 5598 5591 5589 5593 5595 5597 5599 5602 5609 5615 5618 5626 5631 5635 5637 5631 5638 5634 5636 5643 5639 5652 5649 5658 5659 5660 5664 5663 5656 5655 5666 5668 5663 5654 5647 5646 5646 5645
5606 5606 5606 5608 5607 5608 5606 5604 5603 5600 5597 5604 5605 5607 5612 5616 5614 5621 5630 5628 5629 5625 5632 5631 5633 5643 5642 5645 5654 5657 5655 5652 5655 5658 5656 5657 5656 5663 5665 5661 5659 5650 5641 5641 5640
5607 5608 5608 5610 5612 5609 5610 5611 5608 5607 5602 5607 5612 5613 5615 5617 5618 5621 5628 5628 5627 5626 5630 5624 5637 5639 5644 5645 5644 5642 5644 5643 5652 5649 5649 5648 5650 5660 5662 5661 5656 5649 5643 5638 5634
5608 5607 5610 5610 5611 5611 5611 5613 5611 5609 5581 5608 5612 5618 5619 5622 5620 5628 5630 5628 5631 5623 5622 5627 5634 5636 5640 5640 5640 5640 5642 5641 5640 5635 5629 5637 5629 5648 5651 5653 5646 5635 5633 5629 5627
5608 5604 5607 5609 5608 5611 5612 5613 5611 5607 5561 5613 5612 5622 5622 5619 5621 5624 5630 5629 5624 5625 5626 5627 5627 5632 5634 5640 5639 5637 5635 5632 5627 5617 5623 5625 5613 5639 5639 5639 5639 5628 5626 5621 5617
5603 5608 5599 5607 5605 5610 5612 5609 5608 5576 5571 5611 5615 5614 5615 5619 5618 5620 5623 5628 5626 5623 5619 5621 5626 5630 5631 5627 5631 5624 5621 5611 5597 5595 5590 5619 5610 5628 5628 5638 5636 5628 5619 5613 5605
5598 5601 5599 5597 5606 5605 5606 5602 5568 5560 5614 5611 5612 5613 5614 5613 5613 5616 5616 5616 5615 5609 5612 5612 5617 5621 5626 5617 5619 5615 5607 5575 5586 5564 5593 5606 5602 5627 5638 5633 5632 5624 5610 5601 5593
5591 5595 5602 5596 5598 5602 5593 5589 5580 5610 5604 5618 5615 5611 5610 5612 5613 5613 5611 5611 5619 5618 5593 5596 5602 5611 5619 5621 5613 5604 5606 5579 5589 5581 5587 5599 5601 5630 5621 5611 5608 5614 5600 5587 5579
5579 5587 5594 5593 5590 5590 5580 5539 5588 5605 5618 5612 5612 5607 5606 5612 5612 5612 5605 5610 5618 5616 5617 5604 5610 5608 5610 5612 5611 5602 5593 5601 5569 5560 5571 5593 5606 5619 5605 5598 5594 5590 5587 5576 5571
5557 5569 5583 5591 5578 5574 5568 5582 5603 5617 5615 5615 5609 5608 5599 5601 5604 5602 5601 5619 5624 5616 5624 5614 5598 5598 5599 5603 5600 5601 5596 5583 5556 5570 5583 5582 5588 5604 5604 5600 5586 5580 5575 5568 5564
5536 5553 5573 5577 5573 5555 5551 5577 5602 5612 5615 5610 5608 5600 5604 5600 5599 5598 5606 5620 5620 5614 5619 5611 5600 5582 5590 5586 5586 5584 5583 5573 5567 5569 5565 5542 5580 5592 5594 5584 5577 5569 5562 5557 5551
5513 5531 5555 5558 5551 5541 5559 5583 5604 5602 5604 5607 5604 5609 5600 5594 5594 5595 5606 5613 5614 5613 5609 5608 5576 5544 5584 5584 5585 5587 5586 5580 5566 5569 5536 5522 5558 5568 5570 5573 5564 5551 5547 5540 5535
5495 5514 5530 5536 5531 5537 5561 5584 5592 5590 5591 5593 5595 5602 5604 5596 5600 5596 5602 5606 5603 5605 5600 5596 5566 5538 5572 5571 5573 5576 5572 5564 5543 5534 5534 5534 5559 5557 5547 5543 5542 5533 5528 5525 5520
5476 5493 5502 5514 5522 5547 5562 5573 5580 5587 5589 5587 5591 5594 5598 5598 5595 5589 5593 5597 5597 5600 5601 5598 5570 5586 5584 5591 5569 5563 5565 5554 5555 5507 5541 5539 5565 5549 5542 5529 5522 5517 5512 5507 5502
5467 5484 5498 5502 5517 5533 5547 5566 5570 5575 5577 5578 5579 5585 5591 5585 5586 5585 5578 5578 5583 5588 5580 5579 5554 5568 5573 5572 5571 5571 5562 5546 5537 5562 5549 5570 5549 5549 5535 5516 5505 5501 5496 5492 5486
5462 5468 5476 5488 5509 5521 5533 5541 5557 5568 5565 5571 5572 5582 5573 5574 5588 5580 5563 5562 5574 5561 5562 5550 5523 5505 5509 5547 5548 5553 5552 5540 5547 5551 5539 5546 5546 5535 5510 5495 5489 5486 5484 5476 5471
5454 5460 5469 5480 5488 5500 5518 5545 5556 5556 5557 5565 5570 5561 5558 5568 5570 5568 5568 5562 5563 5551 5541 5537 5509 5506 5533 5528 5510 5503 5534 5546 5541 5538 5547 5531 5542 5506 5493 5489 5479 5473 5469 5462 5458